This is the latest recevied weather packets stored in our database for station/object NW6UP. If no packets are shown the sender has not sent any weather packets the latest 10 day(s).
| Time | Temp. | Humidity | Pressure | Rain* | Wind** | Luminosity | Snow |
|---|---|---|---|---|---|---|---|
| 1777516763 | 17.22° C | 66% | 0 hPa | 0 mm | - | - | - |
| 1777515562 | 17.78° C | 65% | 0 hPa | 0 mm | - | - | - |
| 1777514362 | 18.33° C | 64% | 0 hPa | 0 mm | - | - | - |
| 1777513163 | 18.89° C | 62% | 0 hPa | 0 mm | - | - | - |
| 1777511962 | 19.44° C | 60% | 0 hPa | 0 mm | - | - | - |
| 1777508363 | 21.67° C | 55% | 1014.8 hPa | 0 mm | - | - | - |
| 1777507163 | 22.78° C | 54% | 0 hPa | 0 mm | - | - | - |
| 1777505962 | 22.78° C | 52% | 1015 hPa | 0 mm | - | - | - |
| 1777504762 | 23.33° C | 51% | 1015.3 hPa | 0 mm | - | - | - |
| 1777503562 | 23.89° C | 51% | 1015.4 hPa | 0 mm | - | - | - |
| 1777499962 | 25° C | 44% | 1015.7 hPa | 0 mm | - | - | - |
| 1777498764 | 26.11° C | 42% | 1015.4 hPa | 0 mm | - | - | - |
| 1777497562 | 27.22° C | 40% | 0 hPa | 0 mm | - | - | - |
| 1777493962 | 26.67° C | 36% | 0 hPa | 0 mm | - | - | - |
| 1777491563 | 26.67° C | 35% | 1016.7 hPa | 0 mm | - | - | - |
| 1777490363 | 27.78° C | 35% | 0 hPa | 0 mm | - | - | - |
| 1777489162 | 25.56° C | 38% | 0 hPa | 0 mm | - | - | - |
| 1777487965 | 27.22° C | 37% | 1017.2 hPa | 0 mm | - | - | - |
| 1777486762 | 26.67° C | 35% | 0 hPa | 0 mm | - | - | - |
| 1777485562 | 25.56° C | 37% | 1017.3 hPa | 0 mm | - | - | - |
| 1777483162 | 23.33° C | 44% | 0 hPa | 0 mm | - | - | - |
| 1777481962 | 22.78° C | 47% | 1017.7 hPa | 0 mm | - | - | - |
| 1777480762 | 22.22° C | 47% | 0 hPa | 0 mm | - | - | - |
| 1777479563 | 20.56° C | 53% | 0 hPa | 0 mm | - | - | - |
| 1777478363 | 18.89° C | 59% | 1018.3 hPa | 0 mm | - | - | - |
* Rain latest hour (hover to see other rain measurements)
** Current wind speed in m/s (hover to see current wind gust speed)